IRIDIUM 5

Satellite information

Favourite Embed

Satellite Type and Status

PAYLOADIN ORBIT

Key statistics

Satellite IRIDIUM 5 at a glance.

Uptime

10449

Days in orbit

Revolutions

≈ 15.0

Per day

Orbit

LEO

Low Earth Orbit

Inclination

86.4

Latest

Satellite identification and parameters

Extended collection of information and parameters for IRIDIUM 5.

Object identification

Identified? True

Debris? False

Object name: IRIDIUM 5

International designator: 1997-020D

Object number (NORAD): 24795

Object ID (CCSDS): 24795

Country: UNITED STATES OF AMERICA (US)

Current information (Y/N): Y

RCS size: LARGE

Orbital parameters

Period: 96.224 minutes

Inclination: 86.389 deg

SMA: 6955.847 km

Apoapsis: 649.207 km

Periapsis: 506.217 km

RAAN: 1.4571 deg

Eccentricy: 0.01027839

Argument of periapsis: 216.8811 deg

Mean anomaly: 142.5322 deg

Mean motion: 14.96503582 rev/day

Mean motion (dot): 0.00008038 rev/day2

B* drag term: 0.0006328671 1/REarth

Two-line elements (TLE)

Creation date: Dec. 12, 2025, 10:14 a.m.

Reference frame: TEME

Reference center: EARTH

Epoch: Dec. 12, 2025, 7:43 a.m. UTC

TLE line 0: 0 IRIDIUM 5

TLE line 1: 1 24795U 97020D 25346.32164960 .00008038 00000-0 63287-3 0 9994

TLE line 2: 2 24795 86.3890 1.4571 0102784 216.8811 142.5322 14.96503582512088

Live tracking on map

Real-time ground track for satellite IRIDIUM 5.

In-orbit conjunctions

There are no conjunctions computed for IRIDIUM 5, at the moment. Check back to stay up to date, as we update our databases every day.

Go to all conjunctions

Associated space launch

Iridium provides global mobile telecommunications services using a constellation of 66 low earth orbit satellites in a 86.4° inclined orbit. Although 77 satellites were originally envisioned for the system and spawned the name based on the 77th element in the periodic table, the system has been scaled back. Motorola's Satellite Communications Group designed and manufactured the Iridium satellites with Lockheed Martin providing the LM-700A spacecraft buses.

IRIDIUM 5 was lifted into orbit during the mission ‘Delta II | Iridium 04 to 08’, on board a Delta II space rocket.

The launch took place on May 5, 1997, 2:55 p.m. from Space Launch Complex 2W.

For more information about the launch, click the button.

Launch to space Delta II | Iridium 04 to 08
Delta II | Iridium 04 to 08

Agency: N/A

Status: Launch Successful

Launch date: May 5, 1997, 2:55 p.m. UTC

Rocket: Delta II

Launch pad: Space Launch Complex 2W

Location: Vandenberg SFB, CA, USA

...

Latest news about this satellite

There are no fresh news available about this satellite. Check back as we update our databases every day.


Newsletter sign-up

Weekly statistics, charts and insights to help you stay on top of the space industry.